K7EK Weather Reports


time (UTC)temp
F
wind
direction
speed
knots
gust
knots
rain 1hr
in
rain 24hr
in
rain mn
in
humidity
%
barometer
mb
20260509080057 60 0 0.0 4.3 0.00 0.00 0.00 69 1008.1
20260509074549 60 148 0.0 5.2 0.00 0.00 0.00 68 1008.0
20260509073059 61 238 0.9 7.8 0.00 0.00 0.00 66 1008.2
20260509071548 61 140 3.5 9.6 0.00 0.00 0.00 65 1008.2
20260509070050 61 175 1.7 9.6 0.00 0.00 0.00 65 1008.3
20260509064550 60 155 1.7 7.8 0.00 0.00 0.00 64 1008.5
20260509063056 60 178 0.0 4.3 0.00 0.00 0.00 63 1008.6
20260509061604 60 174 0.0 7.0 0.00 0.00 0.00 62 1008.7
20260509060051 60 151 0.9 7.0 0.00 0.00 0.00 61 1008.8
20260509054557 60 186 0.0 7.8 0.00 0.00 0.00 61 1008.9
20260509053059 59 201 0.0 3.5 0.00 0.00 0.00 61 1008.9
20260509051554 60 0 0.0 2.6 0.00 0.00 0.00 60 1008.8
20260509050051 60 171 0.0 2.6 0.00 0.00 0.00 60 1008.7
20260509044557 60 156 0.0 0.9 0.00 0.00 0.00 61 1008.8
20260509043100 60 0 0.0 1.7 0.00 0.00 0.00 61 1008.9
20260509041552 59 151 0.0 0.9 0.00 0.00 0.00 62 1008.9
20260509040050 59 0 0.0 0.9 0.00 0.00 0.00 64 1008.9
20260509034550 59 0 0.0 0.0 0.00 0.00 0.00 64 1009.1
20260509033051 59 0 0.0 0.0 0.00 0.00 0.00 64 1009.1
20260509031555 59 0 0.0 0.0 0.00 0.00 0.00 64 1009.2
20260509030056 59 0 0.0 0.0 0.00 0.00 0.00 64 1009.3
20260509024551 59 0 0.0 0.0 0.00 0.00 0.00 65 1009.4
20260509023050 59 0 0.0 0.0 0.00 0.00 0.00 65 1009.6
20260509021548 59 0 0.0 0.0 0.00 0.00 0.00 64 1009.8
20260509020043 59 0 0.0 0.0 0.00 0.00 0.00 63 1009.7
20260509014551 60 0 0.0 0.0 0.00 0.00 0.00 60 1009.5
20260509013047 60 0 0.0 0.0 0.00 0.00 0.00 61 1009.7
20260509011550 60 0 0.0 0.0 0.00 0.00 0.00 60 1009.7
20260509010046 62 0 0.0 0.0 0.00 0.00 0.00 57 1009.7
20260509004551 64 0 0.0 1.7 0.00 0.00 0.00 54 1009.7
20260509003051 66 159 0.0 0.9 0.00 0.00 0.00 51 1009.9
20260509001548 67 172 0.0 3.5 0.00 0.00 0.00 49 1009.8
20260509000049 69 212 0.0 7.0 0.00 0.00 0.00 47 1009.9
20260508234553 69 161 0.9 7.0 0.00 0.00 0.00 45 1009.8
20260508233050 70 194 0.0 6.1 0.00 0.00 0.00 45 1009.9
20260508231621 70 135 0.9 9.6 0.00 0.00 0.00 45 1010.2
20260508230059 70 216 3.5 7.8 0.00 0.00 0.00 42 1010.5
20260508224550 71 150 0.9 7.8 0.00 0.00 0.00 44 1010.5
20260508223048 71 245 3.5 10.4 0.00 0.00 0.00 42 1010.5
20260508221548 72 130 2.6 7.8 0.00 0.00 0.00 43 1010.2
20260508220051 71 151 2.6 7.8 0.00 0.00 0.00 43 1010.1
20260508214624 71 221 2.6 9.6 0.00 0.00 0.00 44 1010.2
20260508213052 71 155 1.7 11.3 0.00 0.00 0.00 46 1010.2
20260508211550 71 139 4.3 8.7 0.00 0.00 0.00 44 1010.2
20260508210054 71 184 2.6 10.4 0.00 0.00 0.00 44 1010.4
20260508204550 71 232 4.3 9.6 0.00 0.00 0.00 46 1010.7
20260508203106 71 254 4.3 11.3 0.00 0.00 0.00 43 1010.8
20260508201549 71 240 2.6 10.4 0.00 0.00 0.00 42 1011.1
20260508200049 71 159 3.5 11.3 0.00 0.00 0.00 43 1011.3
20260508194555 71 245 1.7 7.0 0.00 0.00 0.00 47 1011.6
20260508193105 70 349 4.3 10.4 0.00 0.00 0.00 42 1011.9
20260508191548 70 169 6.1 12.2 0.00 0.00 0.00 43 1012.1
20260508190049 70 259 3.5 11.3 0.00 0.00 0.00 47 1012.3
20260508184553 70 117 2.6 10.4 0.00 0.00 0.00 44 1012.3
20260508183102 70 174 3.5 10.4 0.00 0.00 0.00 45 1012.2
20260508181555 70 140 1.7 7.8 0.00 0.00 0.00 45 1012.1
20260508180058 70 269 4.3 10.4 0.00 0.00 0.00 44 1012.4
20260508174552 69 173 4.3 9.6 0.00 0.00 0.00 44 1012.8
20260508173048 69 255 3.5 9.6 0.00 0.00 0.00 41 1013.0
20260508171551 69 226 1.7 10.4 0.00 0.00 0.00 51 1013.3
20260508170052 69 157 3.5 12.2 0.00 0.00 0.00 44 1013.8
20260508164600 68 155 4.3 11.3 0.00 0.00 0.00 45 1014.2
20260508163051 68 229 3.5 8.7 0.00 0.00 0.00 46 1014.3
20260508161547 68 146 1.7 7.8 0.00 0.00 0.00 47 1014.6
20260508160052 67 185 2.6 8.7 0.00 0.00 0.00 49 1015.0
20260508154554 66 208 2.6 7.0 0.00 0.00 0.00 46 1015.1
20260508153051 66 190 1.7 6.1 0.00 0.00 0.00 50 1015.3
20260508151552 65 198 3.5 8.7 0.00 0.00 0.00 49 1015.4
20260508150104 64 178 3.5 7.8 0.00 0.00 0.00 51 1015.4
20260508144546 63 206 2.6 7.0 0.00 0.00 0.00 53 1015.6
20260508143059 62 211 4.3 10.4 0.00 0.00 0.00 55 1015.8
20260508141550 61 274 1.7 5.2 0.00 0.00 0.00 57 1015.8
20260508140106 59 202 2.6 6.1 0.00 0.00 0.00 60 1015.8
20260508134558 58 187 1.7 6.1 0.00 0.00 0.00 59 1015.8
20260508133054 58 254 2.6 7.8 0.00 0.00 0.00 59 1015.8
20260508131551 57 173 0.9 4.3 0.00 0.00 0.00 60 1015.6
20260508130049 56 144 0.9 7.8 0.00 0.00 0.00 61 1015.6
20260508124548 55 169 0.0 3.5 0.00 0.00 0.00 65 1015.6
20260508123051 52 0 1.7 5.2 0.00 0.00 0.00 66 1015.7
20260508121551 50 0 0.0 0.9 0.00 0.00 0.00 73 1015.8
20260508120055 47 0 0.0 0.9 0.00 0.00 0.00 78 1015.6
20260508114604 45 0 0.0 0.9 0.00 0.00 0.00 83 1015.6
20260508113055 42 0 0.0 0.9 0.00 0.00 0.00 87 1015.4
20260508111601 41 0 0.0 0.0 0.00 0.00 0.00 89 1015.3
20260508110049 40 0 0.0 0.0 0.00 0.00 0.00 90 1015.0
20260508104559 39 0 0.0 0.0 0.00 0.00 0.00 91 1014.9
20260508103049 39 0 0.0 0.0 0.00 0.00 0.00 91 1014.8
20260508101554 39 0 0.0 0.0 0.00 0.00 0.00 90 1014.7
20260508100047 39 0 0.0 0.0 0.00 0.00 0.00 90 1014.8
20260508094548 39 0 0.0 0.0 0.00 0.00 0.00 89 1014.8
20260508093050 40 0 0.0 0.0 0.00 0.00 0.00 89 1014.8
20260508091602 40 0 0.0 0.0 0.00 0.00 0.00 88 1014.9
20260508090056 41 0 0.0 0.0 0.00 0.00 0.00 88 1014.9
20260508084547 41 0 0.0 0.0 0.00 0.00 0.00 87 1014.9
20260508083055 41 0 0.0 0.9 0.00 0.00 0.00 88 1015.0
20260508081550 40 0 0.0 0.0 0.00 0.00 0.00 88 1015.0